Wind_Speed
7 6 6 5 6 5 6 6 5 7 7 8 8 8 6 8 6 4 6 11 7 6 6 6 7 9 8 9 11 11 9 8 10 10 11 11 11 10 10 10 9 8 7
9 10 8 7 8 7 8 7 7 9 8 8 8 5 7 6 7 7 7 10 12 10 10 8 8 9 11 12 10 12 13 12 10 10 10 12 11 10 11 11 10 9 8
13 11 8 10 8 10 9 8 8 8 9 9 9 9 7 8 8 9 10 9 12 14 13 11 11 9 10 9 12 10 11 13 14 13 11 12 13 13 12 11 12 10 9
13 13 11 10 9 11 9 8 7 7 9 9 10 9 9 10 10 11 9 9 9 10 12 14 13 13 11 11 11 10 13 11 12 14 15 13 14 14 13 12 12 11 10
11 11 12 10 12 10 8 6 6 9 11 10 9 9 9 7 6 4 4 4 4 6 7 11 13 13 12 13 13 12 11 13 14 14 14 15 16 16 15 14 14 14 14
10 11 9 9 11 8 5 6 10 11 9 7 6 7 6 4 2 0 1 1 1 0 2 6 7 8 13 13 14 15 14 14 13 15 16 15 15 16 17 17 17 16 16
14 13 10 10 9 5 6 8 9 10 6 7 6 5 4 1 1 2 1 1 2 2 2 1 1 5 9 9 14 14 14 15 17 17 16 16 18 18 17 17 18 19 19
11 10 11 9 8 6 7 6 7 6 6 5 4 4 2 3 3 2 1 1 1 2 3 3 1 1 3 6 11 14 17 17 16 18 20 19 20 20 19 20 20 19 20
10 9 8 7 9 5 7 8 6 6 4 5 4 1 3 2 3 3 3 3 3 2 2 4 2 4 3 3 1 6 11 15 18 20 22 23 24 23 23 22 22 21 22
8 8 9 9 9 6 9 6 6 3 3 4 4 2 1 3 4 2 2 3 3 3 3 3 4 4 4 3 7 8 10 12 14 16 20 23 25 26 26 27 25 25 24
10 10 11 12 12 7 8 8 8 4 3 1 2 3 3 3 4 3 4 1 5 3 1 1 2 2 5 5 4 8 9 9 11 14 16 18 20 21 25 25 26 28 27
11 14 14 14 13 9 8 7 7 5 3 4 3 3 3 2 4 6 7 7 7 7 6 6 6 6 5 5 9 11 11 11 11 12 13 14 16 18 22 25 27 28 29
10 12 14 14 11 10 10 8 8 6 5 4 5 4 5 5 6 8 9 10 10 9 9 7 7 7 8 7 9 14 15 14 13 12 13 14 14 16 19 20 22 27 29
10 14 12 14 13 12 12 10 7 6 8 7 8 8 7 7 8 8 10 11 12 12 10 8 8 9 9 10 14 18 14 20 16 16 16 16 16 16 16 18 21 22 25
12 16 13 13 13 13 13 11 7 9 10 8 8 10 10 9 10 10 10 10 11 14 14 13 13 12 12 12 15 17 17 20 21 21 20 19 20 20 20 19 18 20 23
17 16 14 12 14 14 13 13 10 11 11 9 8 11 11 10 11 11 12 12 12 14 18 15 15 16 17 18 16 18 17 22 23 24 23 23 23 24 25 25 26 24 23
18 17 13 7 14 16 14 15 14 13 13 11 10 11 12 13 11 11 13 13 14 15 20 19 18 18 18 21 20 18 19 20 21 24 27 26 24 27 27 26 27 27 27
20 19 11 16 16 21 18 16 16 13 13 12 11 12 12 12 15 15 13 15 16 16 19 24 24 23 23 21 21 23 23 23 24 24 28 30 27 28 28 28 30 31 28
25 23 14 23 23 21 21 22 18 17 15 15 13 13 13 14 15 14 14 14 16 17 19 23 24 24 24 22 23 21 21 25 23 24 26 27 29 30 30 31 34 34 35
34 28 23 20 31 26 22 23 22 20 18 16 16 14 15 15 16 15 15 15 17 18 19 23 25 24 22 22 23 23 23 25 28 27 27 28 31 32 30 30 32 38 42
44 35 32 28 25 27 25 25 22 21 20 16 16 16 15 16 16 18 18 18 21 22 22 25 27 26 25 23 22 26 27 27 29 28 30 29 28 29 29 31 35 38 40
49 48 45 33 27 30 26 26 24 22 21 18 16 17 16 19 21 19 20 22 23 27 26 24 25 25 24 23 25 25 27 29 33 27 31 33 29 33 33 34 39 44 52
50 50 43 34 28 32 31 28 23 23 22 19 18 19 24 23 21 23 22 23 24 25 27 25 23 23 23 22 25 29 26 28 32 31 30 35 29 36 35 42 45 54 62
53 50 46 39 30 28 31 31 24 25 26 28 25 26 28 30 25 25 23 23 21 18 19 21 21 21 22 24 29 29 29 32 30 28 26 37 32 40 46 52 61 59 56
39 41 35 34 31 24 28 27 27 29 31 29 31 31 36 31 24 25 25 23 22 19 19 23 27 27 27 27 28 23 22 22 26 27 26 34 38 44 52 60 60 53 44
28 23 26 26 23 21 26 23 26 28 29 30 32 30 33 32 28 24 25 22 18 17 18 20 21 21 22 21 22 22 23 23 27 32 30 34 42 45 49 54 48 44 41
Wind_Direction
239 242 252 279 286 297 298 315 309 303 296 300 298 302 303 305 298 290 282 288 276 273 277 263 248 236 240 222 216 220 226 229 229 226 221 216 235 238 227 221 227 235 243
242 255 268 284 277 273 275 295 306 307 313 307 304 296 300 299 292 285 272 287 288 273 268 276 261 245 233 241 227 219 221 231 232 237 236 236 231 236 239 240 235 240 240
246 257 267 270 278 288 292 286 311 312 323 317 309 308 309 302 297 290 284 271 279 291 276 271 268 264 256 247 237 235 226 226 227 239 245 236 236 242 246 247 245 235 237
260 263 272 267 273 272 262 294 316 310 310 307 300 296 285 286 289 293 294 278 259 251 283 289 267 267 266 253 247 242 241 233 233 233 242 246 243 244 245 246 248 243 237
265 269 266 267 268 266 274 286 301 309 310 309 302 296 292 296 299 284 295 306 278 260 246 272 272 259 258 252 245 248 246 244 235 237 242 246 246 245 250 248 246 250 250
255 264 267 262 279 270 278 279 307 308 314 318 315 298 292 289 303 305 299 60 283 154 238 254 251 273 260 257 251 247 248 252 251 242 242 249 248 247 246 247 251 250 252
258 251 259 267 266 276 254 298 314 317 325 312 335 315 293 280 347 158 153 32 337 349 313 281 178 211 260 262 246 238 241 248 243 248 245 241 249 250 250 252 251 250 249
249 243 237 255 249 262 290 296 316 311 317 320 340 313 253 215 242 254 259 36 6 334 336 341 342 264 203 230 243 246 251 253 250 244 246 246 247 247 250 252 251 252 253
252 251 248 228 257 266 293 306 314 321 311 317 330 323 289 351 316 270 292 315 35 16 22 8 340 302 267 276 15 269 252 255 255 255 256 253 252 255 254 248 248 247 250
233 234 240 254 248 259 267 290 308 287 343 316 327 331 339 267 313 223 243 302 10 27 61 59 33 7 357 330 291 282 277 269 265 262 260 256 255 252 251 253 251 250 249
221 220 233 248 260 272 270 266 291 268 288 242 272 287 297 302 305 284 288 296 319 307 316 309 287 318 326 315 324 306 302 295 284 277 272 269 268 264 260 257 258 258 257
232 233 233 241 250 253 265 281 272 266 228 230 237 247 242 254 290 295 295 298 297 289 288 277 298 294 301 309 307 295 291 289 288 286 283 279 275 271 265 263 260 259 258
227 236 236 244 246 260 260 268 276 254 272 266 268 265 267 258 267 283 289 291 293 292 294 291 275 282 277 284 289 298 298 288 284 286 285 288 288 278 274 274 273 260 258
236 232 238 247 251 251 250 259 253 257 261 265 274 276 269 272 267 268 273 287 292 291 283 282 285 290 288 289 286 296 306 291 285 287 288 289 290 294 291 284 280 278 267
223 236 239 246 254 247 248 253 239 255 253 262 264 275 276 277 277 277 276 276 280 293 293 293 295 291 295 299 291 293 289 280 280 278 281 285 284 282 284 290 293 290 279
236 237 237 248 250 247 253 258 244 255 244 254 267 267 267 267 273 281 282 278 277 282 288 291 292 294 284 288 290 292 290 291 292 282 282 283 282 282 279 280 283 291 292
234 224 217 255 256 255 256 252 247 239 247 252 256 261 261 263 265 273 276 277 277 283 289 293 293 296 290 295 295 293 293 292 291 292 288 283 281 281 281 279 277 283 289
228 216 216 248 239 259 250 241 248 242 249 251 256 258 263 269 271 273 274 272 271 273 278 287 292 294 295 290 288 290 295 292 287 281 277 283 282 278 278 277 278 277 281
224 210 258 274 252 250 248 250 246 246 247 246 244 252 261 266 269 269 268 274 278 284 290 291 292 295 292 288 286 286 294 295 296 295 300 301 298 290 283 279 281 282 279
227 221 255 286 250 244 240 244 244 243 243 245 249 247 254 261 266 271 274 279 280 281 292 296 294 291 294 290 284 288 294 294 291 288 286 286 290 292 295 296 297 295 294
235 230 241 263 240 240 240 241 238 243 248 247 250 256 261 261 267 270 273 276 275 287 290 290 293 292 288 288 294 295 293 292 292 292 291 290 286 282 281 282 286 289 289
235 235 235 248 247 243 243 239 244 244 247 247 255 264 266 272 278 275 278 280 279 283 285 283 287 285 289 292 295 294 291 292 291 288 290 289 285 284 283 283 282 280 283
228 228 238 243 256 244 241 244 242 244 241 247 259 266 286 286 277 280 284 285 283 283 290 288 281 283 287 290 290 289 292 288 287 290 289 287 287 284 287 289 287 285 288
229 230 233 243 250 258 241 244 242 243 247 246 249 264 276 288 287 281 278 280 279 281 283 286 283 280 279 284 287 290 289 288 290 292 293 286 292 290 292 291 292 293 290
229 233 233 240 254 252 238 241 242 245 247 251 258 266 279 282 282 282 279 281 284 286 290 294 292 290 292 289 288 291 291 288 290 292 296 292 297 299 301 298 301 300 298
238 228 236 238 251 238 240 243 250 251 255 260 265 281 279 278 274 272 273 277 277 285 285 281 287 294 299 302 304 303 305 296 296 299 303 303 304 310 312 308 305 298 297
Height
1587 1587 1588 1587 1587 1587 1587 1586 1586 1585 1584 1584 1583 1583 1582 1582 1581 1581 1580 1578 1577 1577 1578 1578 1578 1579 1579 1580 1581 1582 1584 1586 1587 1589 1590 1591 1592 1593 1594 1594 1595 1596 1597
1586 1584 1585 1587 1585 1586 1586 1584 1583 1582 1581 1581 1581 1580 1580 1580 1579 1577 1579 1578 1576 1577 1576 1576 1576 1577 1577 1578 1578 1580 1581 1583 1585 1587 1588 1590 1590 1591 1593 1594 1594 1594 1595
1582 1582 1584 1584 1585 1584 1582 1582 1581 1582 1581 1580 1579 1577 1578 1577 1577 1575 1575 1575 1576 1574 1575 1575 1575 1575 1575 1576 1576 1578 1579 1580 1582 1585 1586 1587 1588 1589 1591 1592 1592 1593 1593
1580 1580 1582 1582 1583 1582 1582 1580 1579 1580 1579 1578 1577 1576 1575 1575 1574 1573 1572 1572 1573 1574 1572 1572 1572 1573 1574 1574 1574 1575 1576 1578 1579 1582 1583 1585 1586 1587 1588 1589 1590 1590 1591
1578 1578 1579 1581 1579 1580 1579 1579 1579 1578 1577 1575 1575 1574 1573 1571 1571 1571 1570 1569 1570 1570 1572 1570 1570 1571 1572 1572 1573 1573 1574 1575 1576 1578 1579 1581 1582 1584 1585 1586 1587 1588 1588
1576 1576 1577 1577 1576 1578 1578 1579 1577 1576 1574 1573 1572 1572 1572 1571 1570 1569 1569 1569 1568 1568 1570 1568 1569 1569 1569 1570 1570 1571 1571 1572 1573 1574 1576 1577 1578 1580 1581 1582 1583 1584 1585
1571 1573 1575 1575 1574 1575 1576 1576 1576 1575 1573 1571 1570 1571 1571 1570 1570 1569 1568 1568 1568 1568 1566 1567 1568 1569 1567 1566 1566 1567 1568 1569 1570 1571 1571 1572 1574 1576 1577 1578 1579 1580 1581
1569 1570 1571 1574 1573 1575 1573 1573 1572 1573 1572 1570 1570 1569 1568 1568 1570 1570 1568 1566 1565 1567 1567 1566 1566 1564 1565 1564 1564 1565 1566 1566 1566 1566 1567 1568 1570 1571 1572 1573 1574 1575 1576
1568 1568 1570 1572 1572 1573 1574 1572 1572 1571 1571 1570 1568 1570 1567 1565 1567 1568 1570 1569 1566 1566 1566 1566 1564 1563 1563 1563 1564 1562 1562 1563 1564 1564 1563 1563 1565 1567 1568 1568 1569 1569 1571
1566 1567 1568 1569 1569 1571 1570 1570 1570 1569 1569 1571 1571 1568 1568 1569 1567 1565 1567 1569 1568 1566 1564 1565 1565 1562 1563 1563 1561 1561 1560 1560 1560 1560 1560 1560 1561 1561 1562 1564 1564 1564 1565
1562 1563 1565 1566 1568 1569 1568 1567 1566 1566 1568 1568 1569 1569 1568 1569 1569 1569 1565 1567 1568 1565 1563 1564 1564 1564 1561 1561 1561 1558 1558 1557 1557 1556 1556 1555 1555 1555 1557 1557 1558 1559 1560
1559 1560 1560 1561 1563 1565 1566 1567 1566 1565 1564 1566 1568 1567 1568 1568 1568 1569 1567 1566 1565 1565 1564 1562 1562 1563 1562 1561 1558 1557 1555 1553 1553 1552 1552 1551 1551 1551 1551 1550 1551 1552 1553
1559 1558 1560 1561 1560 1561 1563 1565 1567 1567 1566 1567 1566 1568 1567 1566 1567 1568 1567 1564 1564 1563 1563 1562 1560 1559 1558 1558 1557 1554 1553 1551 1549 1547 1547 1546 1546 1546 1546 1545 1544 1545 1545
1558 1557 1557 1559 1560 1558 1559 1560 1563 1565 1565 1564 1565 1565 1565 1565 1564 1563 1564 1564 1562 1559 1559 1558 1558 1557 1556 1555 1553 1550 1550 1548 1547 1545 1543 1541 1541 1541 1540 1539 1539 1538 1538
1553 1553 1553 1555 1558 1558 1558 1558 1559 1562 1563 1562 1562 1562 1562 1563 1563 1562 1562 1561 1561 1559 1557 1556 1556 1554 1552 1552 1550 1545 1543 1542 1540 1539 1538 1537 1535 1535 1535 1534 1533 1532 1531
1544 1545 1549 1550 1553 1555 1555 1556 1558 1559 1559 1560 1560 1561 1561 1561 1561 1560 1560 1558 1557 1556 1553 1553 1551 1550 1548 1545 1543 1540 1539 1536 1534 1533 1533 1531 1529 1528 1527 1527 1526 1525 1524
1540 1539 1540 1547 1550 1551 1550 1552 1554 1555 1556 1556 1556 1557 1557 1558 1557 1558 1557 1556 1554 1553 1549 1547 1547 1545 1543 1540 1538 1536 1534 1532 1531 1527 1524 1523 1522 1521 1520 1519 1518 1517 1516
1534 1535 1542 1538 1539 1544 1547 1548 1550 1552 1553 1553 1553 1554 1553 1555 1554 1552 1553 1552 1551 1550 1549 1543 1541 1539 1537 1536 1534 1531 1529 1528 1525 1522 1517 1514 1512 1511 1510 1510 1509 1509 1507
1527 1531 1531 1535 1537 1539 1541 1542 1543 1545 1547 1548 1547 1549 1551 1550 1550 1549 1548 1547 1547 1545 1544 1541 1536 1534 1532 1530 1528 1525 1523 1522 1519 1515 1510 1509 1505 1502 1500 1499 1498 1497 1497
1519 1523 1524 1524 1528 1531 1533 1536 1537 1539 1541 1544 1543 1542 1544 1545 1545 1544 1543 1542 1541 1540 1538 1537 1533 1529 1527 1524 1521 1518 1517 1516 1514 1512 1507 1502 1498 1495 1491 1488 1486 1485 1483
1512 1518 1518 1519 1523 1526 1527 1531 1533 1535 1538 1538 1539 1539 1540 1539 1538 1538 1538 1537 1536 1535 1533 1531 1527 1524 1521 1519 1517 1515 1511 1508 1506 1505 1500 1496 1491 1488 1485 1483 1478 1476 1473
1502 1507 1509 1514 1517 1519 1523 1525 1528 1530 1531 1533 1534 1537 1536 1534 1533 1531 1531 1529 1529 1527 1525 1523 1520 1518 1515 1514 1511 1509 1505 1501 1495 1498 1491 1486 1484 1477 1475 1473 1469 1465 1461
1497 1501 1504 1509 1511 1513 1517 1519 1522 1524 1526 1528 1528 1529 1530 1529 1527 1526 1524 1523 1522 1521 1518 1515 1513 1512 1510 1508 1505 1500 1497 1494 1489 1487 1483 1474 1474 1467 1465 1460 1455 1448 1442
1487 1492 1497 1501 1505 1506 1509 1513 1516 1517 1518 1519 1518 1519 1521 1521 1518 1520 1519 1518 1516 1514 1512 1509 1507 1505 1503 1500 1496 1492 1488 1482 1479 1475 1473 1462 1463 1455 1451 1444 1435 1426 1419
1480 1484 1490 1494 1496 1500 1502 1504 1509 1510 1510 1512 1512 1511 1511 1513 1512 1514 1513 1510 1509 1507 1506 1503 1499 1497 1494 1490 1488 1483 1480 1477 1472 1470 1466 1458 1453 1444 1437 1421 1412 1405 1400
1477 1479 1482 1487 1490 1494 1496 1499 1502 1502 1505 1506 1507 1504 1502 1504 1505 1505 1507 1505 1503 1501 1500 1498 1494 1490 1487 1483 1481 1478 1474 1470 1467 1460 1458 1451 1442 1435 1413 1404 1397 1392 1387